EB5ETD Weather Reports


time (UTC)temp
C
wind
direction
speed
KPH
gust
KPH
rain 1hr
cm
rain 24hr
cm
rain mn
cm
humidity
%
barometer
mb
20260502202504 15 53 3.2 4.8 0.00 0.00 0.00 89 1024.8
20260502202003 15 74 3.2 4.8 0.00 0.00 0.00 89 1024.6
20260502201503 15 41 3.2 8.0 0.00 0.00 0.00 89 1024.7
20260502201004 15 77 1.6 3.2 0.00 0.00 0.00 89 1024.8
20260502200004 15 47 3.2 8.0 0.00 0.00 0.00 89 1024.5
20260502195503 15 47 1.6 11.3 0.00 0.00 0.00 89 1024.5
20260502194503 15 32 3.2 8.0 0.00 0.00 0.00 89 1024.3
20260502194004 15 43 3.2 4.8 0.00 0.00 0.00 89 1024.5
20260502193504 15 53 4.8 8.0 0.00 0.00 0.00 89 1024.4
20260502193004 15 65 1.6 12.9 0.00 0.00 0.00 89 1024.4
20260502192004 16 38 4.8 12.9 0.00 0.00 0.00 88 1024.4
20260502191503 16 57 1.6 4.8 0.00 0.00 0.00 88 1024.3
20260502190504 16 43 4.8 11.3 0.00 0.00 0.00 87 1024.5
20260502190004 16 32 4.8 11.3 0.00 0.00 0.00 87 1024.5
20260502185004 16 43 4.8 11.3 0.00 0.00 0.00 86 1024.2
20260502184503 16 39 8.0 14.5 0.00 0.00 0.00 86 1024.0
20260502184004 16 38 6.4 14.5 0.00 0.00 0.00 85 1024.2
20260502182004 17 49 3.2 8.0 0.00 0.00 0.00 83 1024.2
20260502181503 17 43 3.2 8.0 0.00 0.00 0.00 83 1024.1
20260502181003 17 54 3.2 4.8 0.00 0.00 0.00 82 1024.0
20260502180504 17 41 1.6 4.8 0.00 0.00 0.00 82 1024.1
20260502164004 18 42 8.0 11.3 0.00 0.00 0.00 79 1023.8
20260502163504 18 56 8.0 9.7 0.00 0.00 0.00 78 1023.7
20260502163004 18 61 4.8 8.0 0.00 0.00 0.00 77 1024.2
20260502162503 18 42 3.2 8.0 0.00 0.00 0.00 77 1024.4
20260502162004 18 58 3.2 9.7 0.00 0.00 0.00 78 1024.6
20260502161503 18 49 4.8 11.3 0.00 0.00 0.00 78 1024.4
20260502161003 18 56 4.8 11.3 0.00 0.00 0.00 78 1024.5
20260502160504 18 50 4.8 11.3 0.00 0.00 0.00 77 1024.5
20260502152004 18 46 8.0 11.3 0.00 0.00 0.00 73 1024.7
20260502151503 18 44 9.7 12.9 0.00 0.00 0.00 75 1024.4
20260502151004 18 46 8.0 12.9 0.00 0.00 0.00 76 1024.4
20260502150503 18 59 4.8 12.9 0.00 0.00 0.00 78 1024.9
20260502130504 18 38 8.0 9.7 0.00 0.00 0.00 75 1026.1
20260502123504 18 53 4.8 11.3 0.00 0.00 0.00 75 1026.2
20260502122004 19 36 4.8 11.3 0.00 0.00 0.00 74 1025.7
20260502121503 19 57 3.2 11.3 0.00 0.00 0.00 72 1026.0
20260502120504 18 37 0.0 4.8 0.00 0.00 0.00 72 1026.4
20260502115503 18 126 1.6 9.7 0.00 0.00 0.00 73 1026.5
20260502115004 18 23 6.4 9.7 0.00 0.00 0.00 73 1026.6
20260502114504 18 34 4.8 9.7 0.00 0.00 0.00 73 1026.6
20260502114003 18 46 6.4 14.5 0.00 0.00 0.00 74 1026.6
20260502113504 18 46 4.8 11.3 0.00 0.00 0.00 73 1026.8
20260502113003 18 50 4.8 14.5 0.00 0.00 0.00 74 1026.5
20260502112505 18 48 4.8 11.3 0.00 0.00 0.00 73 1026.7
20260502112004 18 47 6.4 11.3 0.00 0.00 0.00 72 1026.7
20260502111004 18 45 8.0 11.3 0.00 0.00 0.00 72 1026.8
20260502110504 18 47 4.8 9.7 0.00 0.00 0.00 72 1026.8
20260502110004 18 28 4.8 11.3 0.00 0.00 0.00 72 1027.0
20260502105503 18 325 1.6 9.7 0.00 0.00 0.00 73 1027.3
20260502104503 18 47 6.4 11.3 0.00 0.00 0.00 74 1027.3
20260502104005 18 38 4.8 8.0 0.00 0.00 0.00 74 1027.3
20260502103504 18 41 3.2 8.0 0.00 0.00 0.00 74 1027.3
20260502103003 18 23 3.2 9.7 0.00 0.00 0.00 76 1027.5
20260502102503 18 38 6.4 11.3 0.00 0.00 0.00 75 1027.5
20260502102004 17 338 4.8 9.7 0.00 0.00 0.00 77 1027.7
20260502101503 18 56 3.2 8.0 0.00 0.00 0.00 76 1027.5
20260502101004 17 43 3.2 8.0 0.00 0.00 0.00 78 1027.6
20260502100504 17 47 1.6 8.0 0.00 0.00 0.00 77 1027.8
20260502091504 16 46 4.8 9.7 0.00 0.00 0.00 81 1028.4
20260502090504 16 64 3.2 9.7 0.00 0.00 0.00 81 1028.5
20260502071504 15 67 1.6 4.8 0.00 0.00 0.00 84 1029.0
20260502070504 15 44 0.0 3.2 0.00 0.00 0.00 84 1029.0
20260502070004 15 41 1.6 3.2 0.00 0.00 0.00 84 1029.1
20260502065504 15 33 1.6 4.8 0.00 0.00 0.00 84 1029.0
20260502065003 15 31 0.0 3.2 0.00 0.00 0.00 85 1029.0
20260502064504 15 31 0.0 3.2 0.00 0.00 0.00 86 1028.9
20260502063504 14 31 0.0 1.6 0.00 0.00 0.00 86 1029.1
20260502063004 14 31 1.6 3.2 0.00 0.00 0.00 86 1029.1
20260502062503 14 31 0.0 3.2 0.00 0.00 0.00 87 1029.2
20260502062004 14 31 1.6 1.6 0.00 0.00 0.00 87 1029.2
20260502061003 14 31 0.0 3.2 0.00 0.00 0.00 87 1029.1
20260502060504 14 31 0.0 1.6 0.00 0.03 0.00 88 1029.3
20260502060004 13 31 0.0 1.6 0.00 0.08 0.00 88 1029.4
20260502055504 13 31 0.0 1.6 0.00 0.10 0.00 88 1029.1
20260502055003 13 32 1.6 3.2 0.00 0.13 0.00 88 1029.4
20260502054504 13 34 1.6 3.2 0.00 0.15 0.00 88 1029.3
20260502054004 13 36 1.6 1.6 0.00 0.15 0.00 89 1029.3
20260502053505 13 37 0.0 1.6 0.00 0.15 0.00 89 1029.3
20260502053003 13 37 0.0 0.0 0.00 0.15 0.00 89 1029.3
20260502052503 13 37 0.0 0.0 0.00 0.18 0.00 89 1029.3
20260502052004 13 38 0.0 1.6 0.00 0.18 0.00 89 1029.1
20260502051504 13 38 0.0 1.6 0.00 0.20 0.00 88 1028.9
20260502051004 13 38 1.6 3.2 0.00 0.20 0.00 88 1028.9
20260502050004 13 151 0.0 1.6 0.00 0.20 0.00 87 1028.9
20260502045504 13 163 1.6 1.6 0.00 0.20 0.00 87 1029.0
20260502045004 13 217 1.6 3.2 0.00 0.20 0.00 88 1028.8
20260502044504 13 229 1.6 3.2 0.00 0.20 0.00 88 1028.8
20260502043004 13 187 1.6 3.2 0.00 0.20 0.00 87 1028.8
20260502042004 14 214 1.6 3.2 0.00 0.20 0.00 86 1028.9
20260502041504 13 211 1.6 3.2 0.00 0.20 0.00 86 1029.0
20260502041004 13 224 0.0 3.2 0.00 0.20 0.00 86 1029.2
20260502040504 13 201 1.6 4.8 0.00 0.20 0.00 87 1029.1
20260502040004 13 274 1.6 3.2 0.00 0.20 0.00 88 1029.4
20260502035504 13 290 1.6 1.6 0.00 0.20 0.00 90 1029.6
20260502035003 13 294 0.0 1.6 0.00 0.20 0.00 91 1029.7
20260502034504 13 302 1.6 3.2 0.00 0.20 0.00 92 1029.8
20260502034004 13 333 0.0 1.6 0.00 0.20 0.00 94 1029.7
20260502033504 13 41 0.0 1.6 0.00 0.20 0.00 94 1029.8
20260502033003 13 43 0.0 1.6 0.00 0.20 0.00 95 1029.8
20260502031003 13 77 1.6 3.2 0.00 0.20 0.00 95 1029.7
20260502030504 13 78 1.6 1.6 0.00 0.20 0.00 95 1029.7
20260502030004 13 78 0.0 1.6 0.00 0.20 0.00 95 1029.5
20260502025004 13 78 1.6 1.6 0.00 0.20 0.00 95 1029.5
20260502024504 13 78 1.6 3.2 0.00 0.20 0.00 95 1029.4
20260502024005 13 78 1.6 3.2 0.00 0.20 0.00 95 1029.3
20260502023503 13 78 1.6 3.2 0.00 0.20 0.00 95 1029.3
20260502023004 13 79 1.6 3.2 0.00 0.20 0.00 95 1029.1
20260502022504 13 79 1.6 3.2 0.00 0.23 0.00 95 1029.4
20260502022004 13 80 1.6 3.2 0.00 0.23 0.00 95 1029.2
20260502021504 13 79 3.2 3.2 0.00 0.25 0.00 95 1029.2
20260502021004 13 77 1.6 3.2 0.00 0.25 0.00 95 1029.3
20260502020504 13 77 1.6 3.2 0.00 0.25 0.00 95 1029.6
20260502020004 13 77 0.0 0.0 0.00 0.25 0.00 95 1029.7
20260502015503 13 77 0.0 1.6 0.00 0.25 0.00 95 1029.7
20260502015003 13 77 1.6 3.2 0.00 0.25 0.00 94 1029.7
20260502014504 13 77 1.6 3.2 0.00 0.25 0.00 94 1029.7
20260502014004 13 77 0.0 1.6 0.00 0.25 0.00 94 1029.6
20260502013503 13 77 0.0 1.6 0.00 0.25 0.00 94 1029.8
20260502013004 13 77 0.0 1.6 0.00 0.25 0.00 94 1029.9
20260502012504 13 77 0.0 1.6 0.00 0.25 0.00 94 1029.8
20260502012004 13 77 1.6 1.6 0.00 0.25 0.00 94 1029.8
20260502011503 13 77 0.0 1.6 0.00 0.25 0.00 94 1029.7
20260502011004 13 77 1.6 1.6 0.00 0.25 0.00 94 1030.0
20260502010504 13 77 1.6 3.2 0.00 0.25 0.00 93 1030.1
20260502005504 13 76 0.0 3.2 0.00 0.25 0.00 93 1030.3
20260502004503 13 76 1.6 3.2 0.00 0.25 0.00 93 1030.3
20260502003504 14 77 0.0 3.2 0.00 0.33 0.00 92 1030.2
20260502003003 14 70 1.6 4.8 0.00 0.41 0.00 92 1030.1
20260502002504 14 66 0.0 1.6 0.00 0.46 0.00 92 1030.2
20260502002004 14 65 1.6 3.2 0.00 0.46 0.00 92 1030.3
20260502001503 14 65 0.0 3.2 0.00 0.46 0.00 91 1030.4
20260502001005 14 65 0.0 1.6 0.00 0.46 0.00 91 1030.3
20260502000004 14 58 1.6 3.2 0.00 0.46 0.00 91 1030.6
20260501235003 14 54 1.6 1.6 0.00 0.46 0.00 91 1030.6
20260501234504 14 54 0.0 3.2 0.00 0.46 0.00 91 1030.5
20260501233503 14 54 0.0 0.0 0.00 0.46 0.00 91 1030.6
20260501233003 14 54 0.0 1.6 0.00 0.46 0.00 91 1030.8
20260501232504 14 54 1.6 3.2 0.00 0.46 0.00 90 1030.7
20260501232004 14 52 1.6 3.2 0.00 0.46 0.00 90 1030.6
20260501231504 14 52 1.6 3.2 0.00 0.46 0.00 90 1030.7
20260501231004 14 52 1.6 3.2 0.00 0.46 0.00 90 1030.7
20260501230504 14 52 1.6 3.2 0.00 0.46 0.00 90 1030.7
20260501230004 14 52 1.6 3.2 0.00 0.46 0.00 90 1030.9
20260501225503 14 52 1.6 3.2 0.00 0.46 0.00 90 1030.8
20260501225004 14 52 1.6 3.2 0.00 0.46 0.00 90 1030.8
20260501223503 14 52 0.0 0.0 0.00 0.46 0.00 90 1030.9
20260501223004 14 52 0.0 1.6 0.00 0.46 0.00 90 1031.1
20260501222503 14 52 1.6 1.6 0.00 0.46 0.00 90 1031.0
20260501222004 14 52 1.6 1.6 0.00 0.46 0.00 90 1030.9
20260501221504 14 51 1.6 3.2 0.00 0.46 0.00 90 1030.9
20260501221004 14 52 1.6 1.6 0.00 0.46 0.00 90 1030.8
20260501220504 14 49 1.6 3.2 0.00 0.46 0.00 89 1030.9
20260501220004 14 38 1.6 3.2 0.00 0.46 0.00 89 1030.9
20260501215504 14 56 1.6 3.2 0.00 0.46 0.46 89 1031.0
20260501214505 14 75 0.0 1.6 0.00 0.46 0.46 89 1031.3
20260501214004 14 57 1.6 4.8 0.00 0.46 0.46 89 1031.1
20260501213504 14 25 1.6 3.2 0.00 0.46 0.46 90 1031.1
20260501213004 14 70 1.6 4.8 0.00 0.46 0.46 90 1031.1
20260501212504 14 63 1.6 3.2 0.00 0.46 0.46 90 1031.2
20260501211504 14 55 1.6 4.8 0.00 0.46 0.46 89 1031.3
20260501211004 14 45 1.6 3.2 0.00 0.46 0.46 89 1031.2
20260501210004 14 51 3.2 4.8 0.00 0.46 0.46 89 1031.2
20260501205504 14 42 4.8 8.0 0.00 0.46 0.46 89 1031.2
20260501205004 14 35 4.8 8.0 0.00 0.46 0.46 89 1031.4
20260501204503 14 47 1.6 9.7 0.00 0.46 0.46 89 1031.3
20260501204004 14 42 6.4 11.3 0.00 0.46 0.46 89 1031.1
20260501203504 14 47 8.0 14.5 0.00 0.46 0.46 90 1031.1
20260501203005 15 40 4.8 9.7 0.00 0.46 0.46 90 1031.1